TKJ9EC LTFJ-LWSK

Flight info

Callsign TKJ9EC
Flight time 1h 8m
Altitude 36000
Route BARPE UG12 GOLDO DCT ALX UM603 PEREN UN128 RUGAS
Aircraft B738/M-SDE2E3FGHIRWXY/LB1

Departure

Time 2026-04-23 09:53
Airport Istanbul Sabiha Gökçen International Airport (LTFJ)

Arrival

Time 2026-04-23 11:01
Airport Skopje International Airport (LWSK)
Time Latitude Longitude Altitude Speed Heading
2026-04-23 09:34 40.90600 29.31636 321 ft 0 kts 333°
2026-04-23 09:41 40.90597 29.31638 321 ft 2 kts 330°
2026-04-23 09:41 40.90585 29.31648 321 ft 2 kts 333°
2026-04-23 09:41 40.90571 29.31657 321 ft 2 kts 332°
2026-04-23 09:42 40.90562 29.31663 321 ft 1 kts 332°
2026-04-23 09:42 40.90551 29.31676 321 ft 2 kts 296°
2026-04-23 09:42 40.90547 29.31695 321 ft 2 kts 264°
2026-04-23 09:42 40.90549 29.31707 321 ft 0 kts 244°
2026-04-23 09:43 40.90552 29.31715 321 ft 0 kts 242°
2026-04-23 09:46 40.90551 29.31711 321 ft 2 kts 242°
2026-04-23 09:46 40.90525 29.31647 321 ft 13 kts 242°
2026-04-23 09:46 40.90482 29.31530 321 ft 14 kts 243°
2026-04-23 09:46 40.90428 29.31442 321 ft 11 kts 189°
2026-04-23 09:47 40.90358 29.31473 321 ft 10 kts 153°
2026-04-23 09:47 40.90297 29.31496 321 ft 7 kts 191°
2026-04-23 09:47 40.90260 29.31453 321 ft 8 kts 240°
2026-04-23 09:47 40.90214 29.31327 321 ft 21 kts 244°
2026-04-23 09:48 40.90138 29.31123 321 ft 24 kts 243°
2026-04-23 09:48 40.90065 29.30921 321 ft 23 kts 244°
2026-04-23 09:48 40.89995 29.30731 321 ft 22 kts 243°
2026-04-23 09:48 40.89930 29.30552 321 ft 21 kts 243°
2026-04-23 09:49 40.89865 29.30381 321 ft 20 kts 244°
2026-04-23 09:49 40.89805 29.30219 321 ft 19 kts 244°
2026-04-23 09:49 40.89751 29.30066 321 ft 17 kts 244°
2026-04-23 09:49 40.89697 29.29922 321 ft 16 kts 244°
2026-04-23 09:50 40.89645 29.29782 321 ft 20 kts 244°
2026-04-23 09:50 40.89566 29.29564 321 ft 27 kts 246°
2026-04-23 09:50 40.89484 29.29343 321 ft 22 kts 244°
2026-04-23 09:50 40.89393 29.29260 321 ft 14 kts 167°
2026-04-23 09:51 40.89342 29.29289 321 ft 6 kts 152°
2026-04-23 09:51 40.89306 29.29321 321 ft 5 kts 136°
2026-04-23 09:51 40.89293 29.29360 321 ft 4 kts 93°
2026-04-23 09:51 40.89297 29.29396 321 ft 3 kts 74°
2026-04-23 09:52 40.89306 29.29425 321 ft 3 kts 64°
2026-04-23 09:52 40.89317 29.29453 321 ft 3 kts 62°
2026-04-23 09:52 40.89331 29.29488 321 ft 12 kts 63°
2026-04-23 09:52 40.89481 29.29905 321 ft 85 kts 64°
2026-04-23 09:53 40.89841 29.30858 324 ft 143 kts 61°
2026-04-23 09:53 40.90356 29.32097 587 ft 164 kts 56°
2026-04-23 09:53 40.90922 29.33427 1228 ft 168 kts 63°
2026-04-23 09:53 40.91376 29.34799 1950 ft 168 kts 68°
2026-04-23 09:54 40.91850 29.36308 2360 ft 183 kts 64°
2026-04-23 09:54 40.92433 29.37856 2808 ft 195 kts 61°
2026-04-23 09:54 40.92963 29.39582 3187 ft 214 kts 77°
2026-04-23 09:54 40.92856 29.41609 3607 ft 234 kts 108°
2026-04-23 09:55 40.91942 29.43454 4134 ft 251 kts 133°
2026-04-23 09:55 40.90496 29.44854 4617 ft 268 kts 150°
2026-04-23 09:55 40.88804 29.45923 5331 ft 274 kts 154°
2026-04-23 09:55 40.87053 29.46937 6114 ft 277 kts 156°
2026-04-23 09:56 40.85175 29.47631 6764 ft 284 kts 171°
2026-04-23 09:56 40.83161 29.47506 6962 ft 292 kts 197°
2026-04-23 09:56 40.81397 29.46265 7814 ft 288 kts 219°
2026-04-23 09:56 40.79884 29.44568 8654 ft 287 kts 223°
2026-04-23 09:57 40.78429 29.42819 9417 ft 288 kts 224°
2026-04-23 09:57 40.76949 29.41025 10162 ft 290 kts 224°
2026-04-23 09:57 40.75438 29.39191 10597 ft 304 kts 224°
2026-04-23 09:57 40.73840 29.37250 11027 ft 317 kts 225°
2026-04-23 09:58 40.72308 29.35076 11422 ft 330 kts 235°
2026-04-23 09:58 40.71269 29.32390 12087 ft 332 kts 255°
2026-04-23 09:58 40.70904 29.29414 12860 ft 331 kts 269°
2026-04-23 09:58 40.71014 29.26381 13600 ft 331 kts 279°
2026-04-23 09:59 40.71538 29.23400 14350 ft 332 kts 287°
2026-04-23 09:59 40.72254 29.20530 15160 ft 334 kts 289°
2026-04-23 09:59 40.73034 29.17613 15928 ft 337 kts 289°
2026-04-23 09:59 40.73802 29.14693 16722 ft 338 kts 289°
2026-04-23 10:00 40.74547 29.11758 17413 ft 342 kts 288°
2026-04-23 10:00 40.75281 29.08779 18107 ft 344 kts 288°
2026-04-23 10:00 40.76011 29.05761 18814 ft 345 kts 287°
2026-04-23 10:00 40.76673 29.02726 19543 ft 345 kts 283°
2026-04-23 10:01 40.77130 28.99613 20132 ft 349 kts 278°
2026-04-23 10:01 40.77396 28.96460 20898 ft 347 kts 274°
2026-04-23 10:01 40.77583 28.93298 21532 ft 349 kts 274°
2026-04-23 10:01 40.77748 28.90101 22168 ft 350 kts 273°
2026-04-23 10:02 40.77910 28.86945 22716 ft 352 kts 273°
2026-04-23 10:02 40.78081 28.83720 23365 ft 350 kts 273°
2026-04-23 10:02 40.78254 28.80560 23958 ft 349 kts 273°
2026-04-23 10:02 40.78432 28.77318 24311 ft 355 kts 272°
2026-04-23 10:03 40.78611 28.74089 24847 ft 357 kts 272°
2026-04-23 10:03 40.78792 28.70853 25326 ft 358 kts 272°
2026-04-23 10:03 40.78977 28.67610 25887 ft 357 kts 272°
2026-04-23 10:03 40.79165 28.64316 26320 ft 359 kts 272°
2026-04-23 10:04 40.79351 28.61024 26738 ft 360 kts 272°
2026-04-23 10:04 40.79457 28.57712 27059 ft 364 kts 269°
2026-04-23 10:04 40.79395 28.54391 27536 ft 363 kts 266°
2026-04-23 10:04 40.79256 28.51053 27801 ft 368 kts 266°
2026-04-23 10:05 40.79102 28.47737 28263 ft 367 kts 265°
2026-04-23 10:05 40.78949 28.44379 28748 ft 366 kts 266°
2026-04-23 10:05 40.78807 28.40999 29082 ft 369 kts 266°
2026-04-23 10:05 40.78677 28.37643 29379 ft 372 kts 266°
2026-04-23 10:06 40.78549 28.34266 29712 ft 375 kts 265°
2026-04-23 10:06 40.78416 28.30769 30156 ft 375 kts 265°
2026-04-23 10:06 40.78289 28.27381 30527 ft 376 kts 265°
2026-04-23 10:06 40.78187 28.23918 30787 ft 380 kts 267°
2026-04-23 10:07 40.78218 28.20417 31116 ft 382 kts 269°
2026-04-23 10:07 40.78336 28.16929 31248 ft 388 kts 271°
2026-04-23 10:07 40.78495 28.13378 31636 ft 388 kts 271°
2026-04-23 10:07 40.78655 28.09818 32100 ft 385 kts 271°
2026-04-23 10:08 40.78798 28.06308 32529 ft 384 kts 271°
2026-04-23 10:08 40.78929 28.02765 32721 ft 389 kts 270°
2026-04-23 10:08 40.79051 27.99214 33123 ft 388 kts 271°
2026-04-23 10:09 40.79285 27.92093 33590 ft 391 kts 271°
2026-04-23 10:09 40.79399 27.88527 33797 ft 392 kts 271°
2026-04-23 10:09 40.79493 27.84905 34141 ft 391 kts 270°
2026-04-23 10:09 40.79541 27.81371 34445 ft 389 kts 270°
2026-04-23 10:10 40.79564 27.77788 34601 ft 391 kts 270°
2026-04-23 10:10 40.79585 27.74161 34822 ft 392 kts 270°
2026-04-23 10:10 40.79609 27.70607 35005 ft 393 kts 269°
2026-04-23 10:10 40.79636 27.67004 35246 ft 393 kts 270°
2026-04-23 10:11 40.79710 27.63387 35364 ft 397 kts 272°
2026-04-23 10:11 40.79963 27.59742 35575 ft 399 kts 277°
2026-04-23 10:11 40.80477 27.56195 35931 ft 397 kts 281°
2026-04-23 10:11 40.81152 27.52622 35999 ft 401 kts 283°
2026-04-23 10:12 40.82680 27.45450 36018 ft 410 kts 284°
2026-04-23 10:12 40.84261 27.38150 36034 ft 416 kts 284°
2026-04-23 10:13 40.85798 27.30907 36024 ft 413 kts 283°
2026-04-23 10:13 40.87322 27.23605 36003 ft 415 kts 283°
2026-04-23 10:14 40.88849 27.16217 36008 ft 417 kts 283°
2026-04-23 10:14 40.90370 27.08815 36015 ft 418 kts 283°
2026-04-23 10:15 40.91808 27.01336 36011 ft 419 kts 280°
2026-04-23 10:15 40.92341 26.93708 35999 ft 417 kts 269°
2026-04-23 10:16 40.92038 26.86060 35997 ft 418 kts 265°
2026-04-23 10:16 40.91542 26.78434 36004 ft 419 kts 265°
2026-04-23 10:17 40.91053 26.70778 35999 ft 417 kts 265°
2026-04-23 10:17 40.90580 26.63095 36004 ft 420 kts 265°
2026-04-23 10:18 40.90111 26.55406 36014 ft 422 kts 266°
2026-04-23 10:18 40.89638 26.47693 36002 ft 422 kts 266°
2026-04-23 10:19 40.89161 26.39985 36000 ft 423 kts 266°
2026-04-23 10:19 40.88680 26.32200 36014 ft 426 kts 266°
2026-04-23 10:20 40.88535 26.24433 36006 ft 423 kts 273°
2026-04-23 10:20 40.89261 26.16838 36016 ft 420 kts 278°
2026-04-23 10:21 40.90347 26.09289 36013 ft 422 kts 280°
2026-04-23 10:21 40.91508 26.01716 36012 ft 422 kts 281°
2026-04-23 10:22 40.92637 25.94115 36007 ft 425 kts 280°
2026-04-23 10:22 40.93733 25.86508 36031 ft 425 kts 280°
2026-04-23 10:23 40.94811 25.78922 36016 ft 424 kts 280°
2026-04-23 10:23 40.95898 25.71209 36013 ft 427 kts 280°
2026-04-23 10:24 40.96980 25.63478 36020 ft 427 kts 280°
2026-04-23 10:24 40.98046 25.55819 36027 ft 427 kts 281°
2026-04-23 10:25 40.99118 25.48093 36034 ft 427 kts 281°
2026-04-23 10:25 41.00193 25.40317 36035 ft 429 kts 281°
2026-04-23 10:26 41.01249 25.32606 36038 ft 428 kts 280°
2026-04-23 10:26 41.02304 25.24847 36042 ft 429 kts 280°
2026-04-23 10:27 41.03347 25.17155 36043 ft 430 kts 280°
2026-04-23 10:27 41.04390 25.09429 36044 ft 430 kts 280°
2026-04-23 10:28 41.05442 25.01583 36044 ft 431 kts 280°
2026-04-23 10:28 41.06480 24.93798 36047 ft 432 kts 281°
2026-04-23 10:29 41.07516 24.85971 36048 ft 431 kts 281°
2026-04-23 10:29 41.08555 24.78115 36044 ft 432 kts 281°
2026-04-23 10:30 41.09588 24.70265 36044 ft 432 kts 281°
2026-04-23 10:30 41.10616 24.62410 36044 ft 434 kts 281°
2026-04-23 10:31 41.11626 24.54650 36043 ft 433 kts 281°
2026-04-23 10:31 41.12639 24.46796 36035 ft 433 kts 281°
2026-04-23 10:32 41.13646 24.38959 36032 ft 433 kts 281°
2026-04-23 10:32 41.14650 24.31085 36022 ft 434 kts 280°
2026-04-23 10:33 41.15652 24.23181 36019 ft 435 kts 281°
2026-04-23 10:33 41.16644 24.15329 36015 ft 434 kts 280°
2026-04-23 10:34 41.17638 24.07430 36016 ft 436 kts 281°
2026-04-23 10:34 41.18628 23.99505 36014 ft 435 kts 280°
2026-04-23 10:35 41.19608 23.91611 36013 ft 436 kts 281°
2026-04-23 10:35 41.20583 23.83702 36006 ft 436 kts 281°
2026-04-23 10:36 41.21555 23.75783 36003 ft 436 kts 281°
2026-04-23 10:36 41.22529 23.67841 36002 ft 436 kts 281°
2026-04-23 10:37 41.23491 23.59877 36002 ft 437 kts 281°
2026-04-23 10:37 41.24442 23.51939 35995 ft 437 kts 281°
2026-04-23 10:38 41.25380 23.44078 35840 ft 422 kts 281°
2026-04-23 10:38 41.25832 23.40303 35472 ft 417 kts 281°
2026-04-23 10:38 41.26288 23.36482 34883 ft 418 kts 281°
2026-04-23 10:39 41.26743 23.32663 34272 ft 418 kts 281°
2026-04-23 10:39 41.27188 23.28891 33795 ft 416 kts 281°
2026-04-23 10:39 41.27635 23.25099 33290 ft 417 kts 281°
2026-04-23 10:39 41.28077 23.21333 32713 ft 419 kts 281°
2026-04-23 10:40 41.28524 23.17513 32092 ft 420 kts 281°
2026-04-23 10:40 41.28975 23.13655 31482 ft 420 kts 281°
2026-04-23 10:40 41.29417 23.09861 30894 ft 420 kts 281°
2026-04-23 10:40 41.29863 23.06022 30281 ft 420 kts 281°
2026-04-23 10:41 41.30303 23.02224 29670 ft 419 kts 282°
2026-04-23 10:41 41.30745 22.98408 29063 ft 417 kts 282°
2026-04-23 10:41 41.31182 22.94621 28475 ft 415 kts 281°
2026-04-23 10:41 41.31614 22.90865 27890 ft 413 kts 281°
2026-04-23 10:42 41.32047 22.87093 27305 ft 410 kts 281°
2026-04-23 10:42 41.32476 22.83335 26717 ft 408 kts 282°
2026-04-23 10:42 41.32890 22.79677 26231 ft 404 kts 281°
2026-04-23 10:42 41.33143 22.75953 25832 ft 399 kts 276°
2026-04-23 10:43 41.33218 22.72319 25563 ft 390 kts 274°
2026-04-23 10:43 41.33225 22.68753 25163 ft 385 kts 274°
2026-04-23 10:43 41.33214 22.65228 24634 ft 383 kts 274°
2026-04-23 10:43 41.33208 22.61663 24071 ft 381 kts 274°
2026-04-23 10:44 41.33213 22.58194 23518 ft 380 kts 274°
2026-04-23 10:44 41.33230 22.54648 22946 ft 379 kts 275°
2026-04-23 10:44 41.33254 22.51193 22395 ft 378 kts 275°
2026-04-23 10:44 41.33282 22.47672 21829 ft 377 kts 275°
2026-04-23 10:45 41.33312 22.44235 21273 ft 376 kts 274°
2026-04-23 10:45 41.33343 22.40758 20726 ft 374 kts 275°
2026-04-23 10:45 41.33373 22.37331 20173 ft 373 kts 274°
2026-04-23 10:45 41.33402 22.33861 19609 ft 372 kts 274°
2026-04-23 10:46 41.33429 22.30472 19068 ft 370 kts 273°
2026-04-23 10:46 41.33453 22.27040 18766 ft 360 kts 273°
2026-04-23 10:46 41.33473 22.23811 18640 ft 347 kts 274°
2026-04-23 10:46 41.33492 22.20617 18454 ft 337 kts 274°
2026-04-23 10:47 41.33512 22.17527 18050 ft 334 kts 274°
2026-04-23 10:47 41.33535 22.14468 17597 ft 333 kts 274°
2026-04-23 10:47 41.33557 22.11385 17194 ft 330 kts 273°
2026-04-23 10:47 41.33576 22.08363 16770 ft 328 kts 273°
2026-04-23 10:48 41.33595 22.05324 16308 ft 327 kts 273°
2026-04-23 10:48 41.33612 22.02343 15887 ft 325 kts 273°
2026-04-23 10:48 41.33628 21.99347 15480 ft 322 kts 273°
2026-04-23 10:48 41.33645 21.96383 15072 ft 320 kts 273°
2026-04-23 10:49 41.33662 21.93426 14655 ft 319 kts 272°
2026-04-23 10:49 41.33683 21.90515 14259 ft 316 kts 274°
2026-04-23 10:49 41.34035 21.87632 13805 ft 312 kts 293°
2026-04-23 10:49 41.35097 21.85179 13388 ft 306 kts 312°
2026-04-23 10:50 41.36606 21.83253 12984 ft 301 kts 324°
2026-04-23 10:50 41.38324 21.81724 12546 ft 298 kts 335°
2026-04-23 10:50 41.40271 21.80792 12142 ft 294 kts 347°
2026-04-23 10:50 41.42266 21.80189 11737 ft 292 kts 350°
2026-04-23 10:51 41.44230 21.79649 11519 ft 284 kts 349°
2026-04-23 10:51 41.46113 21.79102 11394 ft 273 kts 349°
2026-04-23 10:51 41.47973 21.78529 11076 ft 271 kts 348°
2026-04-23 10:51 41.49795 21.77947 10727 ft 269 kts 348°
2026-04-23 10:52 41.51611 21.77361 10360 ft 269 kts 348°
2026-04-23 10:52 41.53423 21.76775 10027 ft 267 kts 348°
2026-04-23 10:52 41.55213 21.76195 9692 ft 265 kts 348°
2026-04-23 10:52 41.56985 21.75620 9358 ft 263 kts 348°
2026-04-23 10:53 41.58751 21.75040 9137 ft 256 kts 348°
2026-04-23 10:53 41.60477 21.74453 8740 ft 252 kts 347°
2026-04-23 10:53 41.62145 21.73878 8333 ft 248 kts 347°
2026-04-23 10:53 41.63811 21.73303 7930 ft 244 kts 347°
2026-04-23 10:54 41.65426 21.72749 7539 ft 237 kts 347°
2026-04-23 10:54 41.67007 21.72207 7159 ft 231 kts 347°
2026-04-23 10:54 41.68538 21.71682 6799 ft 224 kts 347°
2026-04-23 10:54 41.70021 21.71172 6459 ft 215 kts 347°
2026-04-23 10:55 41.71439 21.70684 6106 ft 205 kts 347°
2026-04-23 10:55 41.72755 21.70229 5799 ft 187 kts 347°
2026-04-23 10:55 41.73968 21.69811 5523 ft 172 kts 347°
2026-04-23 10:55 41.75086 21.69426 5283 ft 159 kts 347°
2026-04-23 10:56 41.76111 21.69074 5068 ft 146 kts 347°
2026-04-23 10:56 41.77074 21.68742 4821 ft 139 kts 347°
2026-04-23 10:56 41.78018 21.68418 4607 ft 140 kts 347°
2026-04-23 10:56 41.78973 21.68089 4392 ft 141 kts 347°
2026-04-23 10:57 41.79917 21.67762 4166 ft 139 kts 347°
2026-04-23 10:57 41.80859 21.67438 3959 ft 141 kts 347°
2026-04-23 10:57 41.81801 21.67113 3744 ft 139 kts 347°
2026-04-23 10:57 41.82736 21.66795 3531 ft 139 kts 347°
2026-04-23 10:58 41.83676 21.66472 3327 ft 140 kts 347°
2026-04-23 10:58 41.84615 21.66106 3086 ft 141 kts 341°
2026-04-23 10:58 41.85539 21.65671 2816 ft 139 kts 342°
2026-04-23 10:58 41.86454 21.65271 2695 ft 136 kts 342°
2026-04-23 10:59 41.87362 21.64930 2573 ft 139 kts 347°
2026-04-23 10:59 41.88325 21.64651 2464 ft 139 kts 347°
2026-04-23 10:59 41.89274 21.64351 2277 ft 141 kts 346°
2026-04-23 10:59 41.90208 21.64010 2011 ft 137 kts 342°
2026-04-23 11:00 41.91143 21.63672 1675 ft 142 kts 346°
2026-04-23 11:00 41.92109 21.63375 1517 ft 144 kts 344°
2026-04-23 11:00 41.93101 21.63077 1294 ft 147 kts 348°
2026-04-23 11:00 41.94109 21.62804 1043 ft 148 kts 346°
2026-04-23 11:01 41.95116 21.62491 795 ft 147 kts 345°
2026-04-23 11:01 41.96002 21.62202 777 ft 104 kts 345°
2026-04-23 11:01 41.96550 21.62003 779 ft 62 kts 348°
2026-04-23 11:01 41.96836 21.61908 779 ft 36 kts 346°
2026-04-23 11:02 41.96977 21.61875 779 ft 13 kts 17°
2026-04-23 11:02 41.96995 21.61962 779 ft 9 kts 120°
2026-04-23 11:02 41.96959 21.62033 780 ft 8 kts 128°
2026-04-23 11:02 41.96931 21.62075 781 ft 5 kts 134°
2026-04-23 11:03 41.96901 21.62116 780 ft 5 kts 131°
2026-04-23 11:03 41.96877 21.62150 781 ft 1 kts 144°
2026-04-23 11:03 41.96848 21.62171 781 ft 10 kts 162°
2026-04-23 11:03 41.96748 21.62210 780 ft 15 kts 166°
2026-04-23 11:04 41.96649 21.62243 780 ft 14 kts 166°
2026-04-23 11:04 41.96555 21.62275 780 ft 13 kts 167°
2026-04-23 11:04 41.96460 21.62307 780 ft 17 kts 165°
2026-04-23 11:04 41.96336 21.62351 780 ft 17 kts 166°
2026-04-23 11:05 41.96219 21.62392 780 ft 17 kts 165°
2026-04-23 11:05 41.96130 21.62443 780 ft 11 kts 118°
2026-04-23 11:05 41.96134 21.62521 780 ft 5 kts 75°
2026-04-23 11:05 41.96143 21.62566 780 ft 0 kts 75°